Regional Weather Roundup
Issued by NWS

Home | Current Version | Previous Version | Text Only | Print | Product List | Glossary On
Versions: 1 2 3 4 5 6 7 8 9 10 11 12 13 14 15 16 17 18 19 20 21 22 23 24 25 26 27 28 29 30 31 32 33 34 35 36 37 38 39 40 41 42 43 44 45 46 47 48 49 50
000
ASUS44 KOUN 222010
RWROK

WEATHER ROUNDUP FOR OKLAHOMA
NATIONAL WEATHER SERVICE NORMAN OK
300 PM CDT TUE JUL 22 2014

NOTE: "FAIR" INDICATES FEW OR NO CLOUDS BELOW 12,000 FEET WITH NO
      SIGNIFICANT WEATHER AND/OR OBSTRUCTIONS TO VISIBILITY.

OKZ001>007-009>012-014-015-017-222100-
NORTHWEST OKLAHOMA AND THE PANHANDLE

CITY           SKY/WX    TMP DP  RH WIND       PRES   REMARKS
GAGE           PTSUNNY   95  60  31 S14       30.10F HX  95
ENID/WOODRING  MOSUNNY   97  73  46 S6        30.05F HX 107
$$

OKZ016-021>023-033>039-044-045-222100-
SOUTHWEST OKLAHOMA

CITY           SKY/WX    TMP DP  RH WIND       PRES   REMARKS
LAWTON/REGL    MOSUNNY   97  68  38 CALM      30.06F HX 102
LAWTON/FT SILL SUNNY     96  71  43 S7        30.06F HX 103
FREDERICK      MOSUNNY   97  69  40 SE8       30.04F HX 103
CLINTON        MOSUNNY   95  66  38 S10       30.11F HX  98
HOBART         PTSUNNY   96  69  41 S7        30.08F HX 102
ALTUS AFB      PTSUNNY   94  72  48 S6        30.07F HX 101
$$

OKZ018>020-024>031-222100-
CENTRAL OKLAHOMA

CITY           SKY/WX    TMP DP  RH WIND       PRES   REMARKS
OKLAHOMA CITY  MOSUNNY   94  72  48 VRB5      30.08F HX 102
OKC/WILEY POST SUNNY     94  73  50 SE3       30.08F HX 103
OKC/TINKER AFB MOSUNNY   92  72  51 VRB3      30.08F HX 100
STILLWATER     SUNNY     95  73  48 CALM      30.06S HX 104
GUTHRIE        SUNNY     95  70  44 SE6       30.06F HX 101
$$

OKZ008-013-054>072-222100-
NORTHEAST OKLAHOMA

CITY           SKY/WX    TMP DP  RH WIND       PRES   REMARKS
TULSA          MOSUNNY   93  73  52 CALM      30.06S HX 102
TULSA/JONES    MOSUNNY   93  75  55 VRB3      30.06S HX 104
PONCA CITY     MOSUNNY   94  74  52 SW5       30.06S HX 104
BARTLESVILLE   SUNNY     94  76  55 MISG      30.07S HX 106
MUSKOGEE       MOSUNNY   90  75  61 CALM      30.08F HX 100
$$

OKZ032-040>043-046>053-073>077-222100-
SOUTH CENTRAL/SOUTHEAST OKLAHOMA

CITY           SKY/WX    TMP DP  RH WIND       PRES   REMARKS
ARDMORE/DWNTWN SUNNY     91  72  52 SE5       30.06F HX  98
MCALESTER      MOSUNNY   91  73  55 CALM      30.08F HX  99
$$



USA.gov is the U.S. government's official web portal to all federal, state and local government web resources and services.